| time (UTC) | temp F | wind direction | speed MPH | gust MPH | rain 1hr in | rain 24hr in | rain mn in | humidity % | barometer mb |
| 20260507040019 | 44 | 0.0 | 2.0 | 0.00 | 0.19 | 0.19 | 84 | 1015.2 | |
| 20260507035018 | 44 | 0.0 | 2.0 | 0.00 | 0.19 | 0.19 | 83 | 1015.2 | |
| 20260507034018 | 44 | 0.0 | 0.0 | 0.00 | 0.20 | 0.19 | 81 | 1015.2 | |
| 20260507033038 | 46 | 0.0 | 1.0 | 0.00 | 0.20 | 0.19 | 80 | 1015.1 | |
| 20260507032038 | 46 | 0.0 | 1.0 | 0.00 | 0.21 | 0.19 | 80 | 1015.2 | |
| 20260507031018 | 47 | 0.0 | 0.0 | 0.00 | 0.21 | 0.19 | 79 | 1015.3 | |
| 20260507030018 | 47 | 0.0 | 1.0 | 0.00 | 0.22 | 0.19 | 78 | 1015.4 | |
| 20260507025018 | 47 | 0.0 | 0.0 | 0.00 | 0.24 | 0.19 | 78 | 1015.4 | |
| 20260507024018 | 47 | 0.0 | 2.0 | 0.00 | 0.25 | 0.19 | 77 | 1015.3 | |
| 20260507023018 | 47 | 0.0 | 1.0 | 0.00 | 0.26 | 0.19 | 78 | 1015.4 | |
| 20260507022018 | 47 | 248 | 1.0 | 2.0 | 0.00 | 0.27 | 0.19 | 79 | 1015.3 |
| 20260507021018 | 47 | 0.0 | 0.0 | 0.00 | 0.28 | 0.19 | 78 | 1015.3 | |
| 20260507020018 | 47 | 0.0 | 0.0 | 0.00 | 0.30 | 0.19 | 77 | 1015.3 | |
| 20260507015018 | 47 | 0.0 | 0.0 | 0.00 | 0.32 | 0.19 | 78 | 1015.1 | |
| 20260507014018 | 47 | 0.0 | 1.0 | 0.00 | 0.33 | 0.19 | 76 | 1015.0 | |
| 20260507013018 | 47 | 0.0 | 1.0 | 0.00 | 0.35 | 0.19 | 77 | 1014.9 | |
| 20260507012020 | 47 | 270 | 1.0 | 2.0 | 0.00 | 0.36 | 0.19 | 76 | 1014.7 |
| 20260507010020 | 48 | 0.0 | 1.0 | 0.00 | 0.39 | 0.19 | 75 | 1014.7 | |
| 20260507005018 | 48 | 0.0 | 0.0 | 0.00 | 0.40 | 0.19 | 74 | 1014.6 | |
| 20260507004018 | 48 | 0.0 | 0.0 | 0.00 | 0.41 | 0.19 | 72 | 1014.5 | |
| 20260507003018 | 49 | 0.0 | 0.0 | 0.00 | 0.42 | 0.19 | 69 | 1014.5 | |
| 20260507002020 | 50 | 0.0 | 0.0 | 0.00 | 0.43 | 0.19 | 65 | 1014.5 | |
| 20260507001020 | 51 | 248 | 1.0 | 3.0 | 0.00 | 0.45 | 0.19 | 64 | 1014.5 |
| 20260507000020 | 52 | 248 | 1.0 | 2.0 | 0.00 | 0.46 | 0.19 | 62 | 1014.5 |
| 20260506235040 | 52 | 0.0 | 2.0 | 0.00 | 0.46 | 0.19 | 60 | 1014.5 | |
| 20260506234040 | 52 | 293 | 2.0 | 4.0 | 0.00 | 0.47 | 0.19 | 59 | 1014.5 |
| 20260506233018 | 52 | 315 | 1.0 | 4.0 | 0.00 | 0.47 | 0.19 | 59 | 1014.5 |
| 20260506232100 | 53 | 293 | 2.0 | 5.0 | 0.00 | 0.49 | 0.19 | 58 | 1014.7 |
| 20260506231020 | 53 | 293 | 2.0 | 3.0 | 0.00 | 0.50 | 0.19 | 59 | 1014.7 |
| 20260506230020 | 53 | 315 | 2.0 | 6.0 | 0.00 | 0.51 | 0.19 | 58 | 1014.8 |
| 20260506225019 | 53 | 270 | 3.0 | 8.0 | 0.00 | 0.52 | 0.19 | 57 | 1014.8 |
| 20260506224019 | 53 | 293 | 3.0 | 6.0 | 0.00 | 0.53 | 0.19 | 56 | 1014.7 |
| 20260506223020 | 53 | 293 | 2.0 | 7.0 | 0.00 | 0.55 | 0.19 | 56 | 1014.7 |
| 20260506222040 | 54 | 315 | 3.0 | 8.0 | 0.00 | 0.57 | 0.19 | 57 | 1014.7 |
| 20260506221040 | 54 | 315 | 4.0 | 12.0 | 0.00 | 0.59 | 0.19 | 56 | 1014.6 |
| 20260506220020 | 54 | 315 | 3.0 | 10.0 | 0.00 | 0.61 | 0.19 | 56 | 1014.7 |
| 20260506215019 | 54 | 270 | 3.0 | 8.0 | 0.00 | 0.61 | 0.19 | 55 | 1014.6 |
| 20260506214020 | 54 | 315 | 3.0 | 6.0 | 0.00 | 0.62 | 0.19 | 57 | 1014.6 |
| 20260506213040 | 54 | 315 | 3.0 | 8.0 | 0.00 | 0.62 | 0.19 | 54 | 1014.5 |
| 20260506212038 | 54 | 315 | 3.0 | 6.0 | 0.00 | 0.63 | 0.19 | 56 | 1014.2 |
| 20260506211019 | 53 | 270 | 2.0 | 8.0 | 0.00 | 0.64 | 0.19 | 55 | 1014.2 |
| 20260506210020 | 53 | 293 | 3.0 | 7.0 | 0.00 | 0.65 | 0.19 | 56 | 1014.2 |
| 20260506205038 | 53 | 315 | 3.0 | 8.0 | 0.00 | 0.68 | 0.19 | 57 | 1014.1 |
| 20260506204019 | 54 | 293 | 3.0 | 7.0 | 0.00 | 0.69 | 0.19 | 57 | 1014.2 |
| 20260506203019 | 54 | 293 | 3.0 | 8.0 | 0.00 | 0.71 | 0.19 | 56 | 1014.2 |
| 20260506202038 | 54 | 315 | 4.0 | 8.0 | 0.00 | 0.74 | 0.19 | 55 | 1014.2 |
| 20260506201018 | 54 | 293 | 5.0 | 10.0 | 0.00 | 0.76 | 0.19 | 54 | 1014.3 |
| 20260506200019 | 54 | 315 | 4.0 | 10.0 | 0.00 | 0.81 | 0.19 | 54 | 1014.3 |
| 20260506195019 | 55 | 293 | 5.0 | 11.0 | 0.00 | 0.82 | 0.19 | 53 | 1014.2 |
| 20260506194019 | 56 | 315 | 4.0 | 8.0 | 0.00 | 0.83 | 0.19 | 54 | 1014.2 |
| 20260506193018 | 56 | 315 | 6.0 | 10.0 | 0.00 | 0.85 | 0.19 | 55 | 1014.3 |
| 20260506192018 | 56 | 270 | 7.0 | 15.0 | 0.00 | 0.87 | 0.19 | 53 | 1014.2 |
| 20260506191058 | 57 | 315 | 5.0 | 10.0 | 0.00 | 0.89 | 0.19 | 50 | 1014.4 |
| 20260506190019 | 56 | 293 | 2.0 | 5.0 | 0.00 | 0.90 | 0.19 | 53 | 1014.3 |
| 20260506185018 | 55 | 293 | 3.0 | 10.0 | 0.00 | 0.92 | 0.19 | 54 | 1014.3 |
| 20260506184018 | 55 | 293 | 4.0 | 10.0 | 0.00 | 0.93 | 0.19 | 54 | 1014.5 |
| 20260506183018 | 55 | 270 | 5.0 | 11.0 | 0.00 | 0.94 | 0.19 | 53 | 1014.3 |
| 20260506182018 | 55 | 270 | 5.0 | 10.0 | 0.00 | 0.95 | 0.19 | 53 | 1014.0 |
| 20260506181018 | 55 | 293 | 5.0 | 10.0 | 0.00 | 0.96 | 0.19 | 54 | 1014.2 |
| 20260506180018 | 56 | 270 | 4.0 | 11.0 | 0.00 | 0.96 | 0.19 | 52 | 1014.2 |
| 20260506175018 | 56 | 293 | 5.0 | 10.0 | 0.00 | 0.96 | 0.19 | 54 | 1014.3 |
| 20260506174018 | 57 | 293 | 5.0 | 12.0 | 0.00 | 0.96 | 0.19 | 53 | 1014.4 |
| 20260506173020 | 57 | 293 | 4.0 | 8.0 | 0.00 | 0.97 | 0.19 | 54 | 1014.6 |
| 20260506172018 | 57 | 315 | 4.0 | 9.0 | 0.00 | 0.99 | 0.19 | 56 | 1014.4 |
| 20260506171018 | 56 | 315 | 3.0 | 7.0 | 0.00 | 1.00 | 0.19 | 58 | 1014.3 |
| 20260506170020 | 56 | 270 | 4.0 | 8.0 | 0.00 | 1.02 | 0.19 | 54 | 1014.5 |
| 20260506165018 | 58 | 315 | 4.0 | 10.0 | 0.00 | 1.03 | 0.19 | 54 | 1014.7 |
| 20260506164058 | 57 | 315 | 4.0 | 9.0 | 0.00 | 1.03 | 0.19 | 59 | 1014.7 |
| 20260506163040 | 56 | 293 | 2.0 | 6.0 | 0.00 | 1.03 | 0.19 | 52 | 1014.2 |
| 20260506162020 | 55 | 315 | 3.0 | 8.0 | 0.00 | 1.03 | 0.19 | 56 | 1014.6 |
| 20260506161019 | 56 | 315 | 4.0 | 10.0 | 0.00 | 1.03 | 0.19 | 58 | 1014.7 |
| 20260506160020 | 56 | 315 | 4.0 | 9.0 | 0.00 | 1.03 | 0.19 | 57 | 1014.5 |
| 20260506155020 | 55 | 315 | 4.0 | 9.0 | 0.00 | 1.03 | 0.19 | 59 | 1014.3 |
| 20260506154020 | 56 | 315 | 3.0 | 10.0 | 0.00 | 1.03 | 0.19 | 61 | 1014.4 |
| 20260506153018 | 56 | 338 | 5.0 | 11.0 | 0.00 | 1.03 | 0.19 | 67 | 1014.3 |
| 20260506152020 | 55 | 338 | 5.0 | 11.0 | 0.00 | 1.03 | 0.19 | 64 | 1014.1 |
| 20260506151019 | 55 | 315 | 4.0 | 10.0 | 0.00 | 1.03 | 0.19 | 66 | 1013.9 |
| 20260506150020 | 54 | 0 | 5.0 | 10.0 | 0.00 | 1.03 | 0.19 | 68 | 1013.8 |
| 20260506145020 | 54 | 315 | 4.0 | 12.0 | 0.00 | 1.03 | 0.19 | 71 | 1013.7 |
| 20260506144019 | 53 | 0 | 3.0 | 9.0 | 0.00 | 1.03 | 0.19 | 71 | 1013.7 |
| 20260506143019 | 53 | 315 | 6.0 | 13.0 | 0.00 | 1.03 | 0.19 | 70 | 1013.6 |
| 20260506142018 | 53 | 315 | 3.0 | 8.0 | 0.00 | 1.03 | 0.19 | 77 | 1013.4 |
| 20260506141019 | 52 | 315 | 5.0 | 11.0 | 0.00 | 1.03 | 0.19 | 78 | 1013.1 |
| 20260506140019 | 51 | 315 | 4.0 | 10.0 | 0.00 | 1.03 | 0.19 | 82 | 1013.0 |
| 20260506135019 | 51 | 315 | 3.0 | 10.0 | 0.00 | 1.03 | 0.19 | 85 | 1013.0 |
| 20260506134039 | 50 | 315 | 6.0 | 11.0 | 0.00 | 1.03 | 0.19 | 88 | 1013.0 |
| 20260506133019 | 49 | 293 | 3.0 | 8.0 | 0.00 | 1.03 | 0.19 | 91 | 1013.1 |
| 20260506132019 | 47 | 315 | 3.0 | 8.0 | 0.00 | 1.03 | 0.19 | 92 | 1013.0 |
| 20260506131019 | 48 | 293 | 3.0 | 6.0 | 0.00 | 1.03 | 0.19 | 94 | 1012.9 |
| 20260506130019 | 47 | 315 | 3.0 | 7.0 | 0.00 | 1.03 | 0.19 | 94 | 1012.7 |
| 20260506125018 | 46 | 270 | 3.0 | 7.0 | 0.00 | 1.03 | 0.19 | 95 | 1012.6 |
| 20260506124018 | 46 | 293 | 3.0 | 7.0 | 0.00 | 1.03 | 0.19 | 95 | 1012.3 |
| 20260506123018 | 45 | 315 | 3.0 | 8.0 | 0.00 | 1.03 | 0.19 | 95 | 1012.1 |
| 20260506122019 | 45 | 293 | 2.0 | 4.0 | 0.00 | 1.03 | 0.19 | 95 | 1012.1 |
| 20260506121018 | 45 | 293 | 3.0 | 9.0 | 0.00 | 1.03 | 0.19 | 95 | 1012.1 |
| 20260506120018 | 45 | 315 | 3.0 | 7.0 | 0.00 | 1.03 | 0.19 | 95 | 1011.8 |
| 20260506115018 | 45 | 270 | 3.0 | 8.0 | 0.00 | 1.03 | 0.19 | 95 | 1011.8 |
| 20260506114019 | 45 | 315 | 2.0 | 4.0 | 0.00 | 1.03 | 0.19 | 95 | 1011.4 |
| 20260506113019 | 44 | 270 | 1.0 | 4.0 | 0.00 | 1.03 | 0.19 | 95 | 1011.2 |
| 20260506112018 | 44 | 293 | 1.0 | 3.0 | 0.00 | 1.03 | 0.19 | 95 | 1011.1 |
| 20260506111018 | 44 | 270 | 1.0 | 3.0 | 0.00 | 1.03 | 0.19 | 95 | 1011.0 |
| 20260506110018 | 44 | 270 | 1.0 | 3.0 | 0.00 | 1.03 | 0.19 | 95 | 1011.0 |
| 20260506105018 | 44 | 270 | 1.0 | 3.0 | 0.00 | 1.03 | 0.19 | 95 | 1010.9 |
| 20260506104018 | 44 | 270 | 1.0 | 3.0 | 0.01 | 1.03 | 0.19 | 95 | 1011.0 |
| 20260506103038 | 44 | 315 | 2.0 | 4.0 | 0.01 | 1.03 | 0.19 | 95 | 1010.8 |
| 20260506102019 | 44 | 293 | 1.0 | 2.0 | 0.01 | 1.03 | 0.19 | 95 | 1010.6 |
| 20260506101018 | 44 | 293 | 1.0 | 2.0 | 0.01 | 1.03 | 0.19 | 95 | 1010.5 |
| 20260506100018 | 44 | 315 | 1.0 | 2.0 | 0.01 | 1.03 | 0.19 | 95 | 1010.2 |
| 20260506095020 | 44 | 0.0 | 2.0 | 0.01 | 1.03 | 0.19 | 95 | 1009.9 | |
| 20260506094059 | 44 | 0.0 | 2.0 | 0.00 | 1.02 | 0.18 | 95 | 1010.1 | |
| 20260506093018 | 44 | 0.0 | 0.0 | 0.00 | 1.02 | 0.18 | 95 | 1010.0 | |
| 20260506092040 | 44 | 0.0 | 1.0 | 0.00 | 1.02 | 0.18 | 95 | 1010.0 | |
| 20260506091038 | 44 | 315 | 1.0 | 3.0 | 0.00 | 1.02 | 0.18 | 95 | 1010.2 |
| 20260506090018 | 44 | 315 | 3.0 | 6.0 | 0.00 | 1.02 | 0.18 | 95 | 1010.7 |
| 20260506085018 | 44 | 315 | 1.0 | 3.0 | 0.00 | 1.02 | 0.18 | 95 | 1010.1 |
| 20260506084020 | 44 | 0.0 | 1.0 | 0.00 | 1.02 | 0.18 | 95 | 1009.9 | |
| 20260506083018 | 44 | 0.0 | 2.0 | 0.00 | 1.02 | 0.18 | 95 | 1010.0 | |
| 20260506082020 | 44 | 0.0 | 2.0 | 0.01 | 1.02 | 0.18 | 95 | 1010.2 | |
| 20260506081018 | 44 | 315 | 1.0 | 2.0 | 0.01 | 1.02 | 0.18 | 95 | 1010.4 |
| 20260506073018 | 43 | 293 | 1.0 | 3.0 | 0.04 | 1.02 | 0.18 | 95 | 1009.7 |
| 20260506072019 | 43 | 0.0 | 0.0 | 0.03 | 1.01 | 0.17 | 95 | 1009.7 | |
| 20260506071019 | 44 | 315 | 2.0 | 5.0 | 0.04 | 1.01 | 0.17 | 95 | 1009.8 |
| 20260506062019 | 45 | 0.0 | 2.0 | 0.06 | 0.98 | 0.14 | 95 | 1010.2 | |
| 20260506061018 | 44 | 0 | 1.0 | 4.0 | 0.07 | 0.97 | 0.13 | 95 | 1010.0 |
| 20260506051018 | 46 | 293 | 2.0 | 3.0 | 0.05 | 0.90 | 0.06 | 95 | 1010.6 |
| 20260506045019 | 46 | 315 | 1.0 | 4.0 | 0.03 | 0.87 | 0.03 | 95 | 1010.4 |
| 20260506044018 | 46 | 0.0 | 2.0 | 0.04 | 0.87 | 0.03 | 95 | 1010.3 | |
| 20260506043018 | 46 | 293 | 1.0 | 2.0 | 0.03 | 0.86 | 0.02 | 95 | 1010.2 |
| 20260506042018 | 46 | 0.0 | 0.0 | 0.04 | 0.86 | 0.02 | 95 | 1010.0 | |
| 20260506041019 | 45 | 0.0 | 0.0 | 0.03 | 0.85 | 0.01 | 95 | 1010.0 |